| time (UTC) | temp F | wind direction | speed MPH | gust MPH | rain 1hr in | rain 24hr in | rain mn in | humidity % | barometer mb |
| 20260505211502 | 71 | 200 | 2.0 | 7.0 | 0.00 | 0.00 | 0.00 | 45 | 1007.2 |
| 20260505210004 | 71 | 202 | 4.0 | 8.0 | 0.00 | 0.00 | 0.00 | 45 | 1007.1 |
| 20260505204501 | 71 | 204 | 3.0 | 7.0 | 0.00 | 0.00 | 0.00 | 43 | 1007.2 |
| 20260505203002 | 71 | 163 | 3.0 | 6.0 | 0.00 | 0.00 | 0.00 | 45 | 1007.5 |
| 20260505200004 | 71 | 194 | 3.0 | 8.0 | 0.00 | 0.00 | 0.00 | 46 | 1007.6 |
| 20260505193002 | 71 | 183 | 2.0 | 6.0 | 0.00 | 0.00 | 0.00 | 47 | 1008.1 |
| 20260505191502 | 71 | 192 | 3.0 | 7.0 | 0.00 | 0.00 | 0.00 | 48 | 1008.5 |
| 20260505184501 | 71 | 204 | 3.0 | 7.0 | 0.00 | 0.00 | 0.00 | 46 | 1008.5 |
| 20260505183001 | 70 | 170 | 3.0 | 7.0 | 0.00 | 0.00 | 0.00 | 49 | 1008.8 |
| 20260505181501 | 70 | 190 | 3.0 | 7.0 | 0.00 | 0.00 | 0.00 | 50 | 1009.0 |
| 20260505180007 | 69 | 157 | 4.0 | 9.0 | 0.00 | 0.00 | 0.00 | 51 | 1009.2 |
| 20260505174501 | 70 | 188 | 3.0 | 6.0 | 0.00 | 0.00 | 0.00 | 51 | 1009.3 |
| 20260505173002 | 70 | 190 | 3.0 | 5.0 | 0.00 | 0.00 | 0.00 | 53 | 1009.4 |
| 20260505171501 | 70 | 170 | 3.0 | 8.0 | 0.00 | 0.00 | 0.00 | 50 | 1009.5 |
| 20260505170004 | 69 | 196 | 3.0 | 10.0 | 0.00 | 0.00 | 0.00 | 52 | 1009.3 |
| 20260505164503 | 68 | 128 | 3.0 | 9.0 | 0.00 | 0.00 | 0.00 | 51 | 1009.8 |
| 20260505161501 | 68 | 286 | 2.0 | 5.0 | 0.00 | 0.00 | 0.00 | 50 | 1009.8 |
| 20260505153003 | 66 | 192 | 2.0 | 6.0 | 0.00 | 0.00 | 0.00 | 58 | 1010.2 |
| 20260505151503 | 66 | 203 | 2.0 | 5.0 | 0.00 | 0.00 | 0.00 | 56 | 1010.3 |
| 20260505124501 | 55 | 16 | 2.0 | 3.0 | 0.00 | 0.00 | 0.00 | 75 | 1009.1 |
| 20260505123003 | 53 | 351 | 0.0 | 3.0 | 0.00 | 0.00 | 0.00 | 75 | 1008.9 |
| 20260505121503 | 52 | 348 | 0.0 | 0.0 | 0.00 | 0.00 | 0.00 | 78 | 1009.2 |
| 20260505120003 | 51 | 340 | 0.0 | 2.0 | 0.00 | 0.00 | 0.00 | 77 | 1009.0 |
| 20260505114502 | 52 | 320 | 0.0 | 0.0 | 0.00 | 0.00 | 0.00 | 74 | 1008.9 |
| 20260505111503 | 53 | 219 | 0.0 | 2.0 | 0.00 | 0.00 | 0.00 | 69 | 1008.5 |
| 20260505101500 | 57 | 324 | 1.0 | 4.0 | 0.00 | 0.00 | 0.00 | 58 | 1008.2 |
| 20260505100003 | 57 | 346 | 1.0 | 3.0 | 0.00 | 0.00 | 0.00 | 59 | 1008.2 |
| 20260505094501 | 57 | 304 | 1.0 | 3.0 | 0.00 | 0.00 | 0.00 | 60 | 1008.3 |
| 20260505093003 | 57 | 323 | 0.0 | 5.0 | 0.00 | 0.00 | 0.00 | 60 | 1008.3 |
| 20260505091502 | 57 | 288 | 0.0 | 2.0 | 0.00 | 0.00 | 0.00 | 60 | 1008.4 |
| 20260505090004 | 57 | 250 | 1.0 | 3.0 | 0.00 | 0.00 | 0.00 | 60 | 1008.3 |
| 20260505084500 | 58 | 300 | 0.0 | 2.0 | 0.00 | 0.00 | 0.00 | 59 | 1008.4 |
| 20260505083000 | 58 | 313 | 1.0 | 4.0 | 0.00 | 0.00 | 0.00 | 59 | 1008.4 |
| 20260505081500 | 58 | 178 | 0.0 | 5.0 | 0.00 | 0.00 | 0.00 | 60 | 1008.4 |
| 20260505080000 | 57 | 302 | 1.0 | 2.0 | 0.00 | 0.00 | 0.00 | 62 | 1008.4 |
| 20260505074500 | 57 | 355 | 1.0 | 3.0 | 0.00 | 0.00 | 0.00 | 62 | 1008.3 |
| 20260505073001 | 57 | 288 | 0.0 | 4.0 | 0.00 | 0.00 | 0.00 | 62 | 1008.3 |
| 20260505071459 | 57 | 215 | 0.0 | 0.0 | 0.00 | 0.00 | 0.00 | 61 | 1008.4 |
| 20260505070003 | 57 | 52 | 0.0 | 2.0 | 0.00 | 0.00 | 0.00 | 61 | 1008.2 |
| 20260505064500 | 58 | 155 | 2.0 | 5.0 | 0.00 | 0.00 | 0.00 | 60 | 1008.3 |
| 20260505054500 | 59 | 169 | 2.0 | 4.0 | 0.00 | 0.00 | 0.00 | 59 | 1008.5 |
| 20260505053001 | 59 | 176 | 2.0 | 3.0 | 0.00 | 0.00 | 0.00 | 59 | 1008.8 |
| 20260505051500 | 59 | 175 | 2.0 | 3.0 | 0.00 | 0.00 | 0.00 | 59 | 1008.8 |
| 20260505041503 | 60 | 198 | 3.0 | 4.0 | 0.00 | 0.00 | 0.00 | 59 | 1008.8 |
| 20260505040005 | 60 | 171 | 2.0 | 4.0 | 0.00 | 0.00 | 0.00 | 59 | 1008.7 |
| 20260505034501 | 60 | 169 | 2.0 | 3.0 | 0.00 | 0.00 | 0.00 | 58 | 1008.8 |
| 20260505033001 | 60 | 174 | 1.0 | 3.0 | 0.00 | 0.00 | 0.00 | 59 | 1008.9 |
| 20260505031501 | 60 | 180 | 1.0 | 3.0 | 0.00 | 0.00 | 0.00 | 58 | 1008.9 |
| 20260505030001 | 60 | 167 | 0.0 | 1.0 | 0.00 | 0.00 | 0.00 | 59 | 1008.8 |
| 20260505024501 | 60 | 146 | 0.0 | 2.0 | 0.00 | 0.00 | 0.00 | 60 | 1008.9 |
| 20260505023001 | 60 | 146 | 0.0 | 2.0 | 0.00 | 0.00 | 0.00 | 61 | 1008.8 |
| 20260505021500 | 61 | 144 | 0.0 | 2.0 | 0.00 | 0.00 | 0.00 | 60 | 1008.8 |
| 20260505020005 | 61 | 172 | 1.0 | 2.0 | 0.00 | 0.00 | 0.00 | 60 | 1008.8 |
| 20260505014501 | 62 | 181 | 1.0 | 2.0 | 0.00 | 0.00 | 0.00 | 59 | 1008.4 |
| 20260505013000 | 62 | 181 | 0.0 | 2.0 | 0.00 | 0.00 | 0.00 | 59 | 1008.4 |
| 20260505011500 | 62 | 181 | 1.0 | 2.0 | 0.00 | 0.00 | 0.00 | 58 | 1008.2 |
| 20260505010005 | 63 | 180 | 0.0 | 2.0 | 0.00 | 0.00 | 0.00 | 59 | 1008.2 |
| 20260505003000 | 64 | 180 | 1.0 | 2.0 | 0.00 | 0.00 | 0.00 | 56 | 1007.8 |
| 20260505001502 | 65 | 180 | 0.0 | 0.0 | 0.00 | 0.00 | 0.00 | 53 | 1007.8 |
| 20260505000000 | 66 | 180 | 0.0 | 0.0 | 0.00 | 0.00 | 0.00 | 51 | 1007.8 |
| 20260504234500 | 67 | 180 | 0.0 | 0.0 | 0.00 | 0.00 | 0.00 | 50 | 1007.7 |
| 20260504232959 | 67 | 180 | 0.0 | 0.0 | 0.00 | 0.00 | 0.00 | 49 | 1007.7 |
| 20260504231500 | 67 | 180 | 1.0 | 3.0 | 0.00 | 0.00 | 0.00 | 49 | 1007.7 |
| 20260504230000 | 67 | 173 | 1.0 | 2.0 | 0.00 | 0.00 | 0.00 | 49 | 1007.7 |
| 20260504224459 | 68 | 173 | 2.0 | 3.0 | 0.00 | 0.00 | 0.00 | 48 | 1007.8 |
| 20260504223000 | 68 | 204 | 2.0 | 4.0 | 0.00 | 0.00 | 0.00 | 47 | 1007.7 |
| 20260504221500 | 68 | 175 | 0.0 | 2.0 | 0.00 | 0.00 | 0.00 | 46 | 1007.7 |
| 20260504220003 | 68 | 187 | 1.0 | 3.0 | 0.00 | 0.00 | 0.00 | 47 | 1007.7 |
| 20260504214500 | 68 | 173 | 0.0 | 2.0 | 0.00 | 0.00 | 0.00 | 48 | 1007.8 |
| 20260504213002 | 68 | 205 | 1.0 | 3.0 | 0.00 | 0.00 | 0.00 | 52 | 1007.8 |